星链-2432 (STARLINK-2432 )

导读 | 豆包AI

STARLINK-2432是美国太空探索技术公司(SpaceX)星链(Starlink)星座的卫星,于2021年3月11日发射升空,属于星链项目第二代部署批次。该卫星承担星链全球低轨宽带互联网覆盖组网任务,依靠星链星座部署,为全球用户提供高速互联网接入服务。

基本信息
目录编号:
47840
目录名称:
STARLINK-2432
国际标识:
2021-018BF
轨道中心:
EARTH
卫星名称:
星链-2432
卫星全名:
星链-2432 (STARLINK-2432 )
卫星状态:
在轨 (已飞行1876 天)
发射日期:
2021-03-11 UTC
国别 :
美国 (US)
星等 :
--
轨道信息
数据来源 国际轨道数据
星历时间: 2026-04-30T12:00:01+0800
9小时前
查看轨道信息
半长轴: 6865.598km
偏心率: 0.0001575
轨道倾角: 53.137°
近地点辐角 92.099°
升交点赤经 359.690°
平近点角 35.034°
近地点: 486.379km
远地点: 488.543km
周期: 94.358分钟
每日圈数: 15.261079
详细信息
固有亮度:
5
最大亮度:
2.5
卫星平台:
Starlink V1.0
覆盖范围:
全球
运营商:
太空探索技术公司
运营商所在国:
美国
制造商(研发单位):
太空探索技术公司
制造商所在国:
美国
使用方式:
暂无
卫星简介
星链(Starlink)计划是由太空探索技术公司(SpaceX)提出的一个巨型低轨卫星互联网星座项目,计划在2019年至2024年间在太空搭建由约1.2万颗卫星组成的“星链”网络,其中1584颗将部署在地球上空550千米处的近地轨道,并从2020年开始工作。该卫星仍在工作。
2D轨道图
3D轨道图
轨道高度分析图
轨道倾角分析图
轨道综合分析图
查看轨道综合分析图